Regional Weather Roundup
Issued by NWS

Home | Current Version | Previous Version | Graphics & Text | Print | Product List | Glossary On
Versions: 1 2 3 4 5 6 7 8 9 10 11 12 13 14 15 16 17 18 19 20 21 22 23 24 25 26 27 28 29 30 31 32 33 34 35 36 37 38 39 40 41 42 43 44 45 46 47 48 49 50
000
ASUS43 KLMK 241310
RWRKY
KENTUCKY REGIONAL WEATHER ROUNDUP
NATIONAL WEATHER SERVICE LOUISVILLE KY
900 AM EDT WED AUG 24 2016

NOTE "FAIR" INDICATES FEW OR NO CLOUDS BELOW 12,000 FEET
WITH NO SIGNIFICANT WEATHER AND/OR OBSTRUCTIONS TO VISIBILITY.

KYZ001>023-026-027-061>063-070>075-241400-
WESTERN AND SOUTH CENTRAL KENTUCKY

CITY           SKY/WX    TMP DP  RH WIND       PRES   REMARKS
PADUCAH        CLOUDY    78  72  81 S8        30.14F
HENDERSON      CLOUDY    75  70  83 S7        30.13S
OWENSBORO      PTSUNNY   75  73  93 S8        30.16S
HOPKINSVILLE   CLOUDY    76  71  84 S6        30.19S
BOWLING GREEN  CLOUDY    75  70  84 CALM      30.21R
GLASGOW        CLOUDY    74  71  92 S3        30.22S
$$

KYZ024-025-028>034-038-045-046-053-241400-
NORTH CENTRAL KENTUCKY

CITY           SKY/WX    TMP DP  RH WIND       PRES   REMARKS
LOUISVILLE/SDF CLOUDY    74  67  78 SE6       30.19R
LOUISVILLE/LOU MOSUNNY   74  66  76 SE5       30.19F
FORT KNOX      CLOUDY    72  68  86 S7        30.18S
$$

KYZ035>037-039>044-047>052-055>060-089>105-241400-
NORTHEAST KENTUCKY

CITY           SKY/WX    TMP DP  RH WIND       PRES   REMARKS
LEXINGTON      CLOUDY    72  66  81 S6        30.24R
COVINGTON      CLOUDY    71  65  81 S7        30.20S
FRANKFORT      MOSUNNY   72  66  81 S5        30.21S
$$

KYZ054-064>069-076>088-106>120-241400-
SOUTHEAST KENTUCKY

CITY           SKY/WX    TMP DP  RH WIND       PRES   REMARKS
JACKSON        PTSUNNY   70  64  81 CALM      30.28R
LONDON         MOSUNNY   69  64  84 CALM      30.27R
SOMERSET       CLOUDY    68  68 100 S3        30.27S
MIDDLESBORO    CLOUDY    65  64  96 CALM      30.31R
MONTICELLO     PTSUNNY  N/A N/A N/A VRB7      30.27R
$$




USA.gov is the U.S. government's official web portal to all federal, state and local government web resources and services.